TimeEST,TemperatureF,Dew PointF,Humidity,Sea Level PressureIn,VisibilityMPH,Wind Direction,Wind SpeedMPH,Gust SpeedMPH,PrecipitationIn,Events,Conditions,WindDirDegrees,DateUTC
12:51 AM,35.1,26.1,70,30.41,10.0,North,5.8,-,N/A,,Clear,350,2012-12-13 05:51:00
1:51 AM,35.1,26.1,70,30.42,10.0,Calm,Calm,-,N/A,,Clear,0,2012-12-13 06:51:00
2:51 AM,33.1,26.1,75,30.42,10.0,Calm,Calm,-,N/A,,Clear,0,2012-12-13 07:51:00
3:51 AM,32.0,26.1,79,30.43,10.0,Calm,Calm,-,N/A,,Clear,0,2012-12-13 08:51:00
4:51 AM,33.1,26.1,75,30.43,10.0,North,3.5,-,N/A,,Clear,10,2012-12-13 09:51:00
5:51 AM,32.0,26.1,79,30.43,10.0,Calm,Calm,-,N/A,,Clear,0,2012-12-13 10:51:00
6:51 AM,28.4,24.8,86,30.45,10.0,Calm,Calm,-,N/A,,Clear,0,2012-12-13 11:51:00
7:51 AM,32.0,26.1,79,30.46,10.0,North,3.5,-,N/A,,Clear,350,2012-12-13 12:51:00
8:51 AM,37.0,28.9,73,30.45,10.0,North,6.9,-,N/A,,Clear,10,2012-12-13 13:51:00
9:51 AM,39.9,28.0,63,30.45,10.0,NNE,5.8,-,N/A,,Clear,30,2012-12-13 14:51:00
10:51 AM,43.0,26.1,51,30.46,10.0,NE,5.8,-,N/A,,Clear,40,2012-12-13 15:51:00
11:51 AM,44.1,26.1,49,30.43,10.0,NE,5.8,-,N/A,,Clear,40,2012-12-13 16:51:00
12:51 PM,46.0,24.1,42,30.40,10.0,ENE,4.6,-,N/A,,Scattered Clouds,60,2012-12-13 17:51:00
1:51 PM,46.0,23.0,40,30.40,10.0,NNW,3.5,-,N/A,,Clear,340,2012-12-13 18:51:00
2:51 PM,46.0,23.0,40,30.38,10.0,Calm,Calm,-,N/A,,Clear,0,2012-12-13 19:51:00
3:51 PM,45.0,23.0,42,30.37,10.0,Calm,Calm,-,N/A,,Clear,0,2012-12-13 20:51:00
4:51 PM,43.0,23.0,45,30.37,10.0,Calm,Calm,-,N/A,,Clear,0,2012-12-13 21:51:00
7:51 PM,37.9,24.1,57,30.36,10.0,Calm,Calm,-,N/A,,Clear,0,2012-12-14 00:51:00
8:51 PM,35.1,25.0,67,30.34,10.0,Calm,Calm,-,N/A,,Clear,0,2012-12-14 01:51:00
9:51 PM,35.6,26.6,70,30.34,10.0,NNW,3.5,-,N/A,,Clear,330,2012-12-14 02:51:00
10:51 PM,35.1,26.1,70,30.33,10.0,North,3.5,-,N/A,,Clear,10,2012-12-14 03:51:00
11:51 PM,32.0,24.8,75,30.32,10.0,Calm,Calm,-,N/A,,Clear,0,2012-12-14 04:51:00